<?xml version="1.0" encoding="UTF-8" standalone="no" ?>
<gpx xmlns="http://www.topografix.com/GPX/1/1" xmlns:xsi="http://www.w3.org/2001/XMLSchema-instance" xsi:schemaLocation="http://www.topografix.com/GPX/1/1 http://www.topografix.com/GPX/1/1/gpx.xsd" version="1.1" creator="VisuGPX - https://www.visugpx.com">
  <metadata>
    <name>Grand-Vabre GR65 Conques </name>
    <desc><![CDATA[Grand-Vabre GR65 Conques ]]></desc>
  </metadata>
  <trk>
    <name><![CDATA[ConquesVielmontGrand_VabreLe_PerieLissouliereGR6.65]]></name>
    <trkseg>
      <trkpt lat="44.60385" lon="2.39257">
        <ele>351</ele>
        <time>1970-01-01T00:00:00Z</time>
      </trkpt>
      <trkpt lat="44.60386" lon="2.39253">
        <ele>343</ele>
        <time>1970-01-01T00:00:00Z</time>
      </trkpt>
      <trkpt lat="44.60431" lon="2.39167">
        <ele>350</ele>
        <time>1970-01-01T00:00:00Z</time>
      </trkpt>
      <trkpt lat="44.6051" lon="2.39036">
        <ele>342</ele>
        <time>1970-01-01T00:00:00Z</time>
      </trkpt>
      <trkpt lat="44.60564" lon="2.38878">
        <ele>332</ele>
        <time>1970-01-01T00:00:00Z</time>
      </trkpt>
      <trkpt lat="44.60576" lon="2.3885">
        <ele>330</ele>
        <time>1970-01-01T00:00:00Z</time>
      </trkpt>
      <trkpt lat="44.6063" lon="2.38678">
        <ele>321</ele>
        <time>1970-01-01T00:00:00Z</time>
      </trkpt>
      <trkpt lat="44.60647" lon="2.38648">
        <ele>320</ele>
        <time>1970-01-01T00:00:00Z</time>
      </trkpt>
      <trkpt lat="44.60658" lon="2.3864">
        <ele>319</ele>
        <time>1970-01-01T00:00:00Z</time>
      </trkpt>
      <trkpt lat="44.60676" lon="2.3863">
        <ele>316</ele>
        <time>1970-01-01T00:00:00Z</time>
      </trkpt>
      <trkpt lat="44.60694" lon="2.38634">
        <ele>312</ele>
        <time>1970-01-01T00:00:00Z</time>
      </trkpt>
      <trkpt lat="44.607" lon="2.3864">
        <ele>311</ele>
        <time>1970-01-01T00:00:00Z</time>
      </trkpt>
      <trkpt lat="44.60714" lon="2.3864">
        <ele>311</ele>
        <time>1970-01-01T00:00:00Z</time>
      </trkpt>
      <trkpt lat="44.60751" lon="2.38615">
        <ele>317</ele>
        <time>1970-01-01T00:00:00Z</time>
      </trkpt>
      <trkpt lat="44.60811" lon="2.38601">
        <ele>324</ele>
        <time>1970-01-01T00:00:00Z</time>
      </trkpt>
      <trkpt lat="44.60894" lon="2.38533">
        <ele>328</ele>
        <time>1970-01-01T00:00:00Z</time>
      </trkpt>
      <trkpt lat="44.60922" lon="2.38525">
        <ele>324</ele>
        <time>1970-01-01T00:00:00Z</time>
      </trkpt>
      <trkpt lat="44.60939" lon="2.38532">
        <ele>319</ele>
        <time>1970-01-01T00:00:00Z</time>
      </trkpt>
      <trkpt lat="44.60975" lon="2.38517">
        <ele>314</ele>
        <time>1970-01-01T00:00:00Z</time>
      </trkpt>
      <trkpt lat="44.60999" lon="2.38501">
        <ele>302</ele>
        <time>1970-01-01T00:00:00Z</time>
      </trkpt>
      <trkpt lat="44.61035" lon="2.38487">
        <ele>294</ele>
        <time>1970-01-01T00:00:00Z</time>
      </trkpt>
      <trkpt lat="44.61069" lon="2.38465">
        <ele>284</ele>
        <time>1970-01-01T00:00:00Z</time>
      </trkpt>
      <trkpt lat="44.61077" lon="2.38469">
        <ele>277</ele>
        <time>1970-01-01T00:00:00Z</time>
      </trkpt>
      <trkpt lat="44.61088" lon="2.38483">
        <ele>267</ele>
        <time>1970-01-01T00:00:00Z</time>
      </trkpt>
      <trkpt lat="44.61104" lon="2.38473">
        <ele>264</ele>
        <time>1970-01-01T00:00:00Z</time>
      </trkpt>
      <trkpt lat="44.6116" lon="2.38457">
        <ele>257</ele>
        <time>1970-01-01T00:00:00Z</time>
      </trkpt>
      <trkpt lat="44.61162" lon="2.3844">
        <ele>249</ele>
        <time>1970-01-01T00:00:00Z</time>
      </trkpt>
      <trkpt lat="44.61206" lon="2.38437">
        <ele>243</ele>
        <time>1970-01-01T00:00:00Z</time>
      </trkpt>
      <trkpt lat="44.61307" lon="2.38391">
        <ele>258</ele>
        <time>1970-01-01T00:00:00Z</time>
      </trkpt>
      <trkpt lat="44.61345" lon="2.3837">
        <ele>266</ele>
        <time>1970-01-01T00:00:00Z</time>
      </trkpt>
      <trkpt lat="44.61361" lon="2.38364">
        <ele>266</ele>
        <time>1970-01-01T00:00:00Z</time>
      </trkpt>
      <trkpt lat="44.61371" lon="2.38364">
        <ele>265</ele>
        <time>1970-01-01T00:00:00Z</time>
      </trkpt>
      <trkpt lat="44.61355" lon="2.38395">
        <ele>264</ele>
        <time>1970-01-01T00:00:00Z</time>
      </trkpt>
      <trkpt lat="44.6132" lon="2.38445">
        <ele>273</ele>
        <time>1970-01-01T00:00:00Z</time>
      </trkpt>
      <trkpt lat="44.61323" lon="2.38454">
        <ele>273</ele>
        <time>1970-01-01T00:00:00Z</time>
      </trkpt>
      <trkpt lat="44.61344" lon="2.38442">
        <ele>277</ele>
        <time>1970-01-01T00:00:00Z</time>
      </trkpt>
      <trkpt lat="44.61384" lon="2.38435">
        <ele>282</ele>
        <time>1970-01-01T00:00:00Z</time>
      </trkpt>
      <trkpt lat="44.61355" lon="2.38449">
        <ele>279</ele>
        <time>1970-01-01T00:00:00Z</time>
      </trkpt>
      <trkpt lat="44.61301" lon="2.38513">
        <ele>281</ele>
        <time>1970-01-01T00:00:00Z</time>
      </trkpt>
      <trkpt lat="44.61306" lon="2.38515">
        <ele>277</ele>
        <time>1970-01-01T00:00:00Z</time>
      </trkpt>
      <trkpt lat="44.61294" lon="2.38556">
        <ele>280</ele>
        <time>1970-01-01T00:00:00Z</time>
      </trkpt>
      <trkpt lat="44.61293" lon="2.38644">
        <ele>287</ele>
        <time>1970-01-01T00:00:00Z</time>
      </trkpt>
      <trkpt lat="44.61311" lon="2.38718">
        <ele>290</ele>
        <time>1970-01-01T00:00:00Z</time>
      </trkpt>
      <trkpt lat="44.61319" lon="2.38707">
        <ele>291</ele>
        <time>1970-01-01T00:00:00Z</time>
      </trkpt>
      <trkpt lat="44.61315" lon="2.38649">
        <ele>294</ele>
        <time>1970-01-01T00:00:00Z</time>
      </trkpt>
      <trkpt lat="44.61324" lon="2.386">
        <ele>298</ele>
        <time>1970-01-01T00:00:00Z</time>
      </trkpt>
      <trkpt lat="44.61344" lon="2.38552">
        <ele>301</ele>
        <time>1970-01-01T00:00:00Z</time>
      </trkpt>
      <trkpt lat="44.6138" lon="2.38525">
        <ele>304</ele>
        <time>1970-01-01T00:00:00Z</time>
      </trkpt>
      <trkpt lat="44.61414" lon="2.38522">
        <ele>308</ele>
        <time>1970-01-01T00:00:00Z</time>
      </trkpt>
      <trkpt lat="44.61406" lon="2.38538">
        <ele>310</ele>
        <time>1970-01-01T00:00:00Z</time>
      </trkpt>
      <trkpt lat="44.61381" lon="2.38558">
        <ele>314</ele>
        <time>1970-01-01T00:00:00Z</time>
      </trkpt>
      <trkpt lat="44.61372" lon="2.38619">
        <ele>319</ele>
        <time>1970-01-01T00:00:00Z</time>
      </trkpt>
      <trkpt lat="44.6138" lon="2.38617">
        <ele>321</ele>
        <time>1970-01-01T00:00:00Z</time>
      </trkpt>
      <trkpt lat="44.61399" lon="2.38576">
        <ele>323</ele>
        <time>1970-01-01T00:00:00Z</time>
      </trkpt>
      <trkpt lat="44.61429" lon="2.38558">
        <ele>328</ele>
        <time>1970-01-01T00:00:00Z</time>
      </trkpt>
      <trkpt lat="44.61491" lon="2.38582">
        <ele>338</ele>
        <time>1970-01-01T00:00:00Z</time>
      </trkpt>
      <trkpt lat="44.6153" lon="2.38587">
        <ele>344</ele>
        <time>1970-01-01T00:00:00Z</time>
      </trkpt>
      <trkpt lat="44.61563" lon="2.3857">
        <ele>349</ele>
        <time>1970-01-01T00:00:00Z</time>
      </trkpt>
      <trkpt lat="44.61593" lon="2.38539">
        <ele>352</ele>
        <time>1970-01-01T00:00:00Z</time>
      </trkpt>
      <trkpt lat="44.61638" lon="2.38477">
        <ele>359</ele>
        <time>1970-01-01T00:00:00Z</time>
      </trkpt>
      <trkpt lat="44.61683" lon="2.38426">
        <ele>369</ele>
        <time>1970-01-01T00:00:00Z</time>
      </trkpt>
      <trkpt lat="44.61701" lon="2.38393">
        <ele>373</ele>
        <time>1970-01-01T00:00:00Z</time>
      </trkpt>
      <trkpt lat="44.61718" lon="2.38352">
        <ele>377</ele>
        <time>1970-01-01T00:00:00Z</time>
      </trkpt>
      <trkpt lat="44.61721" lon="2.3833">
        <ele>379</ele>
        <time>1970-01-01T00:00:00Z</time>
      </trkpt>
      <trkpt lat="44.61725" lon="2.38334">
        <ele>381</ele>
        <time>1970-01-01T00:00:00Z</time>
      </trkpt>
      <trkpt lat="44.61726" lon="2.38344">
        <ele>384</ele>
        <time>1970-01-01T00:00:00Z</time>
      </trkpt>
      <trkpt lat="44.61726" lon="2.38324">
        <ele>389</ele>
        <time>1970-01-01T00:00:00Z</time>
      </trkpt>
      <trkpt lat="44.61665" lon="2.38168">
        <ele>417</ele>
        <time>1970-01-01T00:00:00Z</time>
      </trkpt>
      <trkpt lat="44.61667" lon="2.38145">
        <ele>420</ele>
        <time>1970-01-01T00:00:00Z</time>
      </trkpt>
      <trkpt lat="44.61685" lon="2.38133">
        <ele>423</ele>
        <time>1970-01-01T00:00:00Z</time>
      </trkpt>
      <trkpt lat="44.61775" lon="2.3812">
        <ele>444</ele>
        <time>1970-01-01T00:00:00Z</time>
      </trkpt>
      <trkpt lat="44.61837" lon="2.38104">
        <ele>459</ele>
        <time>1970-01-01T00:00:00Z</time>
      </trkpt>
      <trkpt lat="44.61848" lon="2.38107">
        <ele>457</ele>
        <time>1970-01-01T00:00:00Z</time>
      </trkpt>
      <trkpt lat="44.61838" lon="2.38198">
        <ele>459</ele>
        <time>1970-01-01T00:00:00Z</time>
      </trkpt>
      <trkpt lat="44.6184" lon="2.38264">
        <ele>455</ele>
        <time>1970-01-01T00:00:00Z</time>
      </trkpt>
      <trkpt lat="44.61844" lon="2.38273">
        <ele>456</ele>
        <time>1970-01-01T00:00:00Z</time>
      </trkpt>
      <trkpt lat="44.61844" lon="2.38278">
        <ele>456</ele>
        <time>1970-01-01T00:00:00Z</time>
      </trkpt>
      <trkpt lat="44.61839" lon="2.38259">
        <ele>456</ele>
        <time>1970-01-01T00:00:00Z</time>
      </trkpt>
      <trkpt lat="44.6184" lon="2.38254">
        <ele>455</ele>
        <time>1970-01-01T00:00:00Z</time>
      </trkpt>
      <trkpt lat="44.61851" lon="2.38286">
        <ele>457</ele>
        <time>1970-01-01T00:00:00Z</time>
      </trkpt>
      <trkpt lat="44.61846" lon="2.38286">
        <ele>457</ele>
        <time>1970-01-01T00:00:00Z</time>
      </trkpt>
      <trkpt lat="44.61849" lon="2.38282">
        <ele>455</ele>
        <time>1970-01-01T00:00:00Z</time>
      </trkpt>
      <trkpt lat="44.61851" lon="2.38306">
        <ele>458</ele>
        <time>1970-01-01T00:00:00Z</time>
      </trkpt>
      <trkpt lat="44.61857" lon="2.38322">
        <ele>462</ele>
        <time>1970-01-01T00:00:00Z</time>
      </trkpt>
      <trkpt lat="44.61885" lon="2.38363">
        <ele>464</ele>
        <time>1970-01-01T00:00:00Z</time>
      </trkpt>
      <trkpt lat="44.61946" lon="2.38442">
        <ele>474</ele>
        <time>1970-01-01T00:00:00Z</time>
      </trkpt>
      <trkpt lat="44.61999" lon="2.38532">
        <ele>485</ele>
        <time>1970-01-01T00:00:00Z</time>
      </trkpt>
      <trkpt lat="44.62027" lon="2.38569">
        <ele>490</ele>
        <time>1970-01-01T00:00:00Z</time>
      </trkpt>
      <trkpt lat="44.6212" lon="2.38658">
        <ele>502</ele>
        <time>1970-01-01T00:00:00Z</time>
      </trkpt>
      <trkpt lat="44.62135" lon="2.38684">
        <ele>507</ele>
        <time>1970-01-01T00:00:00Z</time>
      </trkpt>
      <trkpt lat="44.62163" lon="2.38749">
        <ele>508</ele>
        <time>1970-01-01T00:00:00Z</time>
      </trkpt>
      <trkpt lat="44.62194" lon="2.38842">
        <ele>519</ele>
        <time>1970-01-01T00:00:00Z</time>
      </trkpt>
      <trkpt lat="44.62215" lon="2.38946">
        <ele>506</ele>
        <time>1970-01-01T00:00:00Z</time>
      </trkpt>
      <trkpt lat="44.62236" lon="2.38986">
        <ele>507</ele>
        <time>1970-01-01T00:00:00Z</time>
      </trkpt>
      <trkpt lat="44.62321" lon="2.39041">
        <ele>521</ele>
        <time>1970-01-01T00:00:00Z</time>
      </trkpt>
      <trkpt lat="44.62343" lon="2.39072">
        <ele>526</ele>
        <time>1970-01-01T00:00:00Z</time>
      </trkpt>
      <trkpt lat="44.62458" lon="2.39258">
        <ele>521</ele>
        <time>1970-01-01T00:00:00Z</time>
      </trkpt>
      <trkpt lat="44.62493" lon="2.39345">
        <ele>521</ele>
        <time>1970-01-01T00:00:00Z</time>
      </trkpt>
      <trkpt lat="44.62522" lon="2.39394">
        <ele>525</ele>
        <time>1970-01-01T00:00:00Z</time>
      </trkpt>
      <trkpt lat="44.6253" lon="2.39404">
        <ele>525</ele>
        <time>1970-01-01T00:00:00Z</time>
      </trkpt>
      <trkpt lat="44.62537" lon="2.39387">
        <ele>525</ele>
        <time>1970-01-01T00:00:00Z</time>
      </trkpt>
      <trkpt lat="44.62536" lon="2.39397">
        <ele>524</ele>
        <time>1970-01-01T00:00:00Z</time>
      </trkpt>
      <trkpt lat="44.62561" lon="2.39445">
        <ele>528</ele>
        <time>1970-01-01T00:00:00Z</time>
      </trkpt>
      <trkpt lat="44.62625" lon="2.39523">
        <ele>532</ele>
        <time>1970-01-01T00:00:00Z</time>
      </trkpt>
      <trkpt lat="44.6263" lon="2.3951">
        <ele>532</ele>
        <time>1970-01-01T00:00:00Z</time>
      </trkpt>
      <trkpt lat="44.62603" lon="2.39454">
        <ele>531</ele>
        <time>1970-01-01T00:00:00Z</time>
      </trkpt>
      <trkpt lat="44.62608" lon="2.39454">
        <ele>531</ele>
        <time>1970-01-01T00:00:00Z</time>
      </trkpt>
      <trkpt lat="44.62669" lon="2.39374">
        <ele>512</ele>
        <time>1970-01-01T00:00:00Z</time>
      </trkpt>
      <trkpt lat="44.62677" lon="2.39379">
        <ele>511</ele>
        <time>1970-01-01T00:00:00Z</time>
      </trkpt>
      <trkpt lat="44.62693" lon="2.39402">
        <ele>508</ele>
        <time>1970-01-01T00:00:00Z</time>
      </trkpt>
      <trkpt lat="44.62698" lon="2.39388">
        <ele>507</ele>
        <time>1970-01-01T00:00:00Z</time>
      </trkpt>
      <trkpt lat="44.62693" lon="2.39346">
        <ele>505</ele>
        <time>1970-01-01T00:00:00Z</time>
      </trkpt>
      <trkpt lat="44.62664" lon="2.39255">
        <ele>502</ele>
        <time>1970-01-01T00:00:00Z</time>
      </trkpt>
      <trkpt lat="44.62667" lon="2.3925">
        <ele>500</ele>
        <time>1970-01-01T00:00:00Z</time>
      </trkpt>
      <trkpt lat="44.6271" lon="2.39293">
        <ele>496</ele>
        <time>1970-01-01T00:00:00Z</time>
      </trkpt>
      <trkpt lat="44.62736" lon="2.39332">
        <ele>494</ele>
        <time>1970-01-01T00:00:00Z</time>
      </trkpt>
      <trkpt lat="44.62775" lon="2.39411">
        <ele>491</ele>
        <time>1970-01-01T00:00:00Z</time>
      </trkpt>
      <trkpt lat="44.62817" lon="2.39449">
        <ele>488</ele>
        <time>1970-01-01T00:00:00Z</time>
      </trkpt>
      <trkpt lat="44.62828" lon="2.39453">
        <ele>485</ele>
        <time>1970-01-01T00:00:00Z</time>
      </trkpt>
      <trkpt lat="44.62802" lon="2.39388">
        <ele>479</ele>
        <time>1970-01-01T00:00:00Z</time>
      </trkpt>
      <trkpt lat="44.628" lon="2.39287">
        <ele>468</ele>
        <time>1970-01-01T00:00:00Z</time>
      </trkpt>
      <trkpt lat="44.62789" lon="2.39209">
        <ele>458</ele>
        <time>1970-01-01T00:00:00Z</time>
      </trkpt>
      <trkpt lat="44.62778" lon="2.3916">
        <ele>447</ele>
        <time>1970-01-01T00:00:00Z</time>
      </trkpt>
      <trkpt lat="44.62762" lon="2.39128">
        <ele>440</ele>
        <time>1970-01-01T00:00:00Z</time>
      </trkpt>
      <trkpt lat="44.62753" lon="2.39094">
        <ele>432</ele>
        <time>1970-01-01T00:00:00Z</time>
      </trkpt>
      <trkpt lat="44.62773" lon="2.39035">
        <ele>429</ele>
        <time>1970-01-01T00:00:00Z</time>
      </trkpt>
      <trkpt lat="44.62763" lon="2.39025">
        <ele>431</ele>
        <time>1970-01-01T00:00:00Z</time>
      </trkpt>
      <trkpt lat="44.62763" lon="2.38996">
        <ele>436</ele>
        <time>1970-01-01T00:00:00Z</time>
      </trkpt>
      <trkpt lat="44.62751" lon="2.3897">
        <ele>445</ele>
        <time>1970-01-01T00:00:00Z</time>
      </trkpt>
      <trkpt lat="44.62738" lon="2.38905">
        <ele>450</ele>
        <time>1970-01-01T00:00:00Z</time>
      </trkpt>
      <trkpt lat="44.6273" lon="2.38818">
        <ele>448</ele>
        <time>1970-01-01T00:00:00Z</time>
      </trkpt>
      <trkpt lat="44.62734" lon="2.38723">
        <ele>448</ele>
        <time>1970-01-01T00:00:00Z</time>
      </trkpt>
      <trkpt lat="44.62756" lon="2.38679">
        <ele>456</ele>
        <time>1970-01-01T00:00:00Z</time>
      </trkpt>
      <trkpt lat="44.62752" lon="2.38652">
        <ele>459</ele>
        <time>1970-01-01T00:00:00Z</time>
      </trkpt>
      <trkpt lat="44.62729" lon="2.38592">
        <ele>466</ele>
        <time>1970-01-01T00:00:00Z</time>
      </trkpt>
      <trkpt lat="44.62724" lon="2.3856">
        <ele>465</ele>
        <time>1970-01-01T00:00:00Z</time>
      </trkpt>
      <trkpt lat="44.62723" lon="2.38498">
        <ele>453</ele>
        <time>1970-01-01T00:00:00Z</time>
      </trkpt>
      <trkpt lat="44.6271" lon="2.38442">
        <ele>451</ele>
        <time>1970-01-01T00:00:00Z</time>
      </trkpt>
      <trkpt lat="44.62696" lon="2.3841">
        <ele>448</ele>
        <time>1970-01-01T00:00:00Z</time>
      </trkpt>
      <trkpt lat="44.62693" lon="2.38375">
        <ele>443</ele>
        <time>1970-01-01T00:00:00Z</time>
      </trkpt>
      <trkpt lat="44.62694" lon="2.38332">
        <ele>439</ele>
        <time>1970-01-01T00:00:00Z</time>
      </trkpt>
      <trkpt lat="44.627" lon="2.38297">
        <ele>439</ele>
        <time>1970-01-01T00:00:00Z</time>
      </trkpt>
      <trkpt lat="44.6272" lon="2.38243">
        <ele>445</ele>
        <time>1970-01-01T00:00:00Z</time>
      </trkpt>
      <trkpt lat="44.62694" lon="2.38107">
        <ele>454</ele>
        <time>1970-01-01T00:00:00Z</time>
      </trkpt>
      <trkpt lat="44.62664" lon="2.38066">
        <ele>458</ele>
        <time>1970-01-01T00:00:00Z</time>
      </trkpt>
      <trkpt lat="44.62636" lon="2.38047">
        <ele>460</ele>
        <time>1970-01-01T00:00:00Z</time>
      </trkpt>
      <trkpt lat="44.62596" lon="2.37999">
        <ele>467</ele>
        <time>1970-01-01T00:00:00Z</time>
      </trkpt>
      <trkpt lat="44.62577" lon="2.37974">
        <ele>470</ele>
        <time>1970-01-01T00:00:00Z</time>
      </trkpt>
      <trkpt lat="44.62566" lon="2.37944">
        <ele>472</ele>
        <time>1970-01-01T00:00:00Z</time>
      </trkpt>
      <trkpt lat="44.62577" lon="2.37907">
        <ele>473</ele>
        <time>1970-01-01T00:00:00Z</time>
      </trkpt>
      <trkpt lat="44.62597" lon="2.37898">
        <ele>473</ele>
        <time>1970-01-01T00:00:00Z</time>
      </trkpt>
      <trkpt lat="44.62604" lon="2.3789">
        <ele>472</ele>
        <time>1970-01-01T00:00:00Z</time>
      </trkpt>
      <trkpt lat="44.626" lon="2.37894">
        <ele>475</ele>
        <time>1970-01-01T00:00:00Z</time>
      </trkpt>
      <trkpt lat="44.62599" lon="2.37891">
        <ele>477</ele>
        <time>1970-01-01T00:00:00Z</time>
      </trkpt>
      <trkpt lat="44.62602" lon="2.37894">
        <ele>474</ele>
        <time>1970-01-01T00:00:00Z</time>
      </trkpt>
      <trkpt lat="44.62663" lon="2.37885">
        <ele>473</ele>
        <time>1970-01-01T00:00:00Z</time>
      </trkpt>
      <trkpt lat="44.62728" lon="2.37856">
        <ele>465</ele>
        <time>1970-01-01T00:00:00Z</time>
      </trkpt>
      <trkpt lat="44.6277" lon="2.37818">
        <ele>460</ele>
        <time>1970-01-01T00:00:00Z</time>
      </trkpt>
      <trkpt lat="44.62773" lon="2.37783">
        <ele>456</ele>
        <time>1970-01-01T00:00:00Z</time>
      </trkpt>
      <trkpt lat="44.62718" lon="2.37751">
        <ele>463</ele>
        <time>1970-01-01T00:00:00Z</time>
      </trkpt>
      <trkpt lat="44.62703" lon="2.37702">
        <ele>464</ele>
        <time>1970-01-01T00:00:00Z</time>
      </trkpt>
      <trkpt lat="44.62656" lon="2.37589">
        <ele>458</ele>
        <time>1970-01-01T00:00:00Z</time>
      </trkpt>
      <trkpt lat="44.62612" lon="2.37494">
        <ele>457</ele>
        <time>1970-01-01T00:00:00Z</time>
      </trkpt>
      <trkpt lat="44.62585" lon="2.37444">
        <ele>462</ele>
        <time>1970-01-01T00:00:00Z</time>
      </trkpt>
      <trkpt lat="44.62577" lon="2.37396">
        <ele>468</ele>
        <time>1970-01-01T00:00:00Z</time>
      </trkpt>
      <trkpt lat="44.62601" lon="2.37308">
        <ele>477</ele>
        <time>1970-01-01T00:00:00Z</time>
      </trkpt>
      <trkpt lat="44.6262" lon="2.37217">
        <ele>468</ele>
        <time>1970-01-01T00:00:00Z</time>
      </trkpt>
      <trkpt lat="44.62634" lon="2.37192">
        <ele>467</ele>
        <time>1970-01-01T00:00:00Z</time>
      </trkpt>
      <trkpt lat="44.62653" lon="2.3717">
        <ele>464</ele>
        <time>1970-01-01T00:00:00Z</time>
      </trkpt>
      <trkpt lat="44.62688" lon="2.37169">
        <ele>462</ele>
        <time>1970-01-01T00:00:00Z</time>
      </trkpt>
      <trkpt lat="44.62715" lon="2.37162">
        <ele>461</ele>
        <time>1970-01-01T00:00:00Z</time>
      </trkpt>
      <trkpt lat="44.62788" lon="2.37115">
        <ele>453</ele>
        <time>1970-01-01T00:00:00Z</time>
      </trkpt>
      <trkpt lat="44.62817" lon="2.37116">
        <ele>451</ele>
        <time>1970-01-01T00:00:00Z</time>
      </trkpt>
      <trkpt lat="44.62858" lon="2.37107">
        <ele>448</ele>
        <time>1970-01-01T00:00:00Z</time>
      </trkpt>
      <trkpt lat="44.62911" lon="2.3704">
        <ele>441</ele>
        <time>1970-01-01T00:00:00Z</time>
      </trkpt>
      <trkpt lat="44.62933" lon="2.37008">
        <ele>439</ele>
        <time>1970-01-01T00:00:00Z</time>
      </trkpt>
      <trkpt lat="44.6298" lon="2.36911">
        <ele>430</ele>
        <time>1970-01-01T00:00:00Z</time>
      </trkpt>
      <trkpt lat="44.63093" lon="2.36635">
        <ele>410</ele>
        <time>1970-01-01T00:00:00Z</time>
      </trkpt>
      <trkpt lat="44.63193" lon="2.36449">
        <ele>390</ele>
        <time>1970-01-01T00:00:00Z</time>
      </trkpt>
      <trkpt lat="44.63203" lon="2.36417">
        <ele>387</ele>
        <time>1970-01-01T00:00:00Z</time>
      </trkpt>
      <trkpt lat="44.63206" lon="2.36379">
        <ele>384</ele>
        <time>1970-01-01T00:00:00Z</time>
      </trkpt>
      <trkpt lat="44.632" lon="2.36217">
        <ele>375</ele>
        <time>1970-01-01T00:00:00Z</time>
      </trkpt>
      <trkpt lat="44.63204" lon="2.36177">
        <ele>372</ele>
        <time>1970-01-01T00:00:00Z</time>
      </trkpt>
      <trkpt lat="44.63242" lon="2.36102">
        <ele>364</ele>
        <time>1970-01-01T00:00:00Z</time>
      </trkpt>
      <trkpt lat="44.63419" lon="2.36043">
        <ele>345</ele>
        <time>1970-01-01T00:00:00Z</time>
      </trkpt>
      <trkpt lat="44.63419" lon="2.36023">
        <ele>343</ele>
        <time>1970-01-01T00:00:00Z</time>
      </trkpt>
      <trkpt lat="44.63371" lon="2.36034">
        <ele>340</ele>
        <time>1970-01-01T00:00:00Z</time>
      </trkpt>
      <trkpt lat="44.63203" lon="2.35995">
        <ele>323</ele>
        <time>1970-01-01T00:00:00Z</time>
      </trkpt>
      <trkpt lat="44.63148" lon="2.36022">
        <ele>318</ele>
        <time>1970-01-01T00:00:00Z</time>
      </trkpt>
      <trkpt lat="44.63095" lon="2.36199">
        <ele>304</ele>
        <time>1970-01-01T00:00:00Z</time>
      </trkpt>
      <trkpt lat="44.6308" lon="2.36279">
        <ele>300</ele>
        <time>1970-01-01T00:00:00Z</time>
      </trkpt>
      <trkpt lat="44.63061" lon="2.36322">
        <ele>297</ele>
        <time>1970-01-01T00:00:00Z</time>
      </trkpt>
      <trkpt lat="44.63029" lon="2.36351">
        <ele>294</ele>
        <time>1970-01-01T00:00:00Z</time>
      </trkpt>
      <trkpt lat="44.63022" lon="2.36341">
        <ele>292</ele>
        <time>1970-01-01T00:00:00Z</time>
      </trkpt>
      <trkpt lat="44.63048" lon="2.36316">
        <ele>290</ele>
        <time>1970-01-01T00:00:00Z</time>
      </trkpt>
      <trkpt lat="44.63066" lon="2.36268">
        <ele>287</ele>
        <time>1970-01-01T00:00:00Z</time>
      </trkpt>
      <trkpt lat="44.63073" lon="2.36103">
        <ele>274</ele>
        <time>1970-01-01T00:00:00Z</time>
      </trkpt>
      <trkpt lat="44.63064" lon="2.3597">
        <ele>265</ele>
        <time>1970-01-01T00:00:00Z</time>
      </trkpt>
      <trkpt lat="44.63055" lon="2.35907">
        <ele>260</ele>
        <time>1970-01-01T00:00:00Z</time>
      </trkpt>
      <trkpt lat="44.63078" lon="2.35834">
        <ele>252</ele>
        <time>1970-01-01T00:00:00Z</time>
      </trkpt>
      <trkpt lat="44.63094" lon="2.35817">
        <ele>248</ele>
        <time>1970-01-01T00:00:00Z</time>
      </trkpt>
      <trkpt lat="44.63088" lon="2.3581">
        <ele>246</ele>
        <time>1970-01-01T00:00:00Z</time>
      </trkpt>
      <trkpt lat="44.63006" lon="2.35787">
        <ele>232</ele>
        <time>1970-01-01T00:00:00Z</time>
      </trkpt>
      <trkpt lat="44.62985" lon="2.35806">
        <ele>227</ele>
        <time>1970-01-01T00:00:00Z</time>
      </trkpt>
      <trkpt lat="44.62989" lon="2.35827">
        <ele>226</ele>
        <time>1970-01-01T00:00:00Z</time>
      </trkpt>
      <trkpt lat="44.62982" lon="2.35849">
        <ele>223</ele>
        <time>1970-01-01T00:00:00Z</time>
      </trkpt>
      <trkpt lat="44.62975" lon="2.35851">
        <ele>223</ele>
        <time>1970-01-01T00:00:00Z</time>
      </trkpt>
      <trkpt lat="44.62935" lon="2.35802">
        <ele>223</ele>
        <time>1970-01-01T00:00:00Z</time>
      </trkpt>
      <trkpt lat="44.62919" lon="2.35826">
        <ele>224</ele>
        <time>1970-01-01T00:00:00Z</time>
      </trkpt>
      <trkpt lat="44.62926" lon="2.35825">
        <ele>226</ele>
        <time>1970-01-01T00:00:00Z</time>
      </trkpt>
      <trkpt lat="44.62927" lon="2.35794">
        <ele>225</ele>
        <time>1970-01-01T00:00:00Z</time>
      </trkpt>
      <trkpt lat="44.62942" lon="2.35784">
        <ele>228</ele>
        <time>1970-01-01T00:00:00Z</time>
      </trkpt>
      <trkpt lat="44.62953" lon="2.35763">
        <ele>227</ele>
        <time>1970-01-01T00:00:00Z</time>
      </trkpt>
      <trkpt lat="44.62999" lon="2.35735">
        <ele>227</ele>
        <time>1970-01-01T00:00:00Z</time>
      </trkpt>
      <trkpt lat="44.63047" lon="2.35717">
        <ele>224</ele>
        <time>1970-01-01T00:00:00Z</time>
      </trkpt>
      <trkpt lat="44.63074" lon="2.35691">
        <ele>222</ele>
        <time>1970-01-01T00:00:00Z</time>
      </trkpt>
      <trkpt lat="44.63133" lon="2.35677">
        <ele>223</ele>
        <time>1970-01-01T00:00:00Z</time>
      </trkpt>
      <trkpt lat="44.63149" lon="2.35666">
        <ele>223</ele>
        <time>1970-01-01T00:00:00Z</time>
      </trkpt>
      <trkpt lat="44.6319" lon="2.35588">
        <ele>221</ele>
        <time>1970-01-01T00:00:00Z</time>
      </trkpt>
      <trkpt lat="44.63205" lon="2.35551">
        <ele>220</ele>
        <time>1970-01-01T00:00:00Z</time>
      </trkpt>
      <trkpt lat="44.63202" lon="2.35547">
        <ele>222</ele>
        <time>1970-01-01T00:00:00Z</time>
      </trkpt>
      <trkpt lat="44.63208" lon="2.35562">
        <ele>222</ele>
        <time>1970-01-01T00:00:00Z</time>
      </trkpt>
      <trkpt lat="44.63204" lon="2.35545">
        <ele>221</ele>
        <time>1970-01-01T00:00:00Z</time>
      </trkpt>
      <trkpt lat="44.63188" lon="2.35527">
        <ele>224</ele>
        <time>1970-01-01T00:00:00Z</time>
      </trkpt>
      <trkpt lat="44.63174" lon="2.35501">
        <ele>233</ele>
        <time>1970-01-01T00:00:00Z</time>
      </trkpt>
      <trkpt lat="44.63143" lon="2.35488">
        <ele>243</ele>
        <time>1970-01-01T00:00:00Z</time>
      </trkpt>
      <trkpt lat="44.63098" lon="2.35475">
        <ele>239</ele>
        <time>1970-01-01T00:00:00Z</time>
      </trkpt>
      <trkpt lat="44.62894" lon="2.35565">
        <ele>232</ele>
        <time>1970-01-01T00:00:00Z</time>
      </trkpt>
      <trkpt lat="44.62861" lon="2.35593">
        <ele>232</ele>
        <time>1970-01-01T00:00:00Z</time>
      </trkpt>
      <trkpt lat="44.62802" lon="2.3563">
        <ele>232</ele>
        <time>1970-01-01T00:00:00Z</time>
      </trkpt>
      <trkpt lat="44.6277" lon="2.35655">
        <ele>231</ele>
        <time>1970-01-01T00:00:00Z</time>
      </trkpt>
      <trkpt lat="44.62741" lon="2.3569">
        <ele>230</ele>
        <time>1970-01-01T00:00:00Z</time>
      </trkpt>
      <trkpt lat="44.62705" lon="2.35757">
        <ele>225</ele>
        <time>1970-01-01T00:00:00Z</time>
      </trkpt>
      <trkpt lat="44.62681" lon="2.35827">
        <ele>224</ele>
        <time>1970-01-01T00:00:00Z</time>
      </trkpt>
      <trkpt lat="44.62678" lon="2.35912">
        <ele>229</ele>
        <time>1970-01-01T00:00:00Z</time>
      </trkpt>
      <trkpt lat="44.62625" lon="2.3606">
        <ele>241</ele>
        <time>1970-01-01T00:00:00Z</time>
      </trkpt>
      <trkpt lat="44.62622" lon="2.36081">
        <ele>245</ele>
        <time>1970-01-01T00:00:00Z</time>
      </trkpt>
      <trkpt lat="44.62584" lon="2.36151">
        <ele>237</ele>
        <time>1970-01-01T00:00:00Z</time>
      </trkpt>
      <trkpt lat="44.6257" lon="2.36159">
        <ele>234</ele>
        <time>1970-01-01T00:00:00Z</time>
      </trkpt>
      <trkpt lat="44.62565" lon="2.3613">
        <ele>234</ele>
        <time>1970-01-01T00:00:00Z</time>
      </trkpt>
      <trkpt lat="44.62554" lon="2.36105">
        <ele>234</ele>
        <time>1970-01-01T00:00:00Z</time>
      </trkpt>
      <trkpt lat="44.62544" lon="2.36096">
        <ele>236</ele>
        <time>1970-01-01T00:00:00Z</time>
      </trkpt>
      <trkpt lat="44.6252" lon="2.36087">
        <ele>236</ele>
        <time>1970-01-01T00:00:00Z</time>
      </trkpt>
      <trkpt lat="44.62511" lon="2.36071">
        <ele>239</ele>
        <time>1970-01-01T00:00:00Z</time>
      </trkpt>
      <trkpt lat="44.62471" lon="2.36044">
        <ele>239</ele>
        <time>1970-01-01T00:00:00Z</time>
      </trkpt>
      <trkpt lat="44.62441" lon="2.36034">
        <ele>236</ele>
        <time>1970-01-01T00:00:00Z</time>
      </trkpt>
      <trkpt lat="44.62361" lon="2.36017">
        <ele>234</ele>
        <time>1970-01-01T00:00:00Z</time>
      </trkpt>
      <trkpt lat="44.62356" lon="2.36025">
        <ele>238</ele>
        <time>1970-01-01T00:00:00Z</time>
      </trkpt>
      <trkpt lat="44.6234" lon="2.36025">
        <ele>237</ele>
        <time>1970-01-01T00:00:00Z</time>
      </trkpt>
      <trkpt lat="44.62318" lon="2.36006">
        <ele>240</ele>
        <time>1970-01-01T00:00:00Z</time>
      </trkpt>
      <trkpt lat="44.62234" lon="2.36025">
        <ele>246</ele>
        <time>1970-01-01T00:00:00Z</time>
      </trkpt>
      <trkpt lat="44.62206" lon="2.36038">
        <ele>248</ele>
        <time>1970-01-01T00:00:00Z</time>
      </trkpt>
      <trkpt lat="44.62132" lon="2.36043">
        <ele>250</ele>
        <time>1970-01-01T00:00:00Z</time>
      </trkpt>
      <trkpt lat="44.62095" lon="2.3604">
        <ele>247</ele>
        <time>1970-01-01T00:00:00Z</time>
      </trkpt>
      <trkpt lat="44.62097" lon="2.36049">
        <ele>242</ele>
        <time>1970-01-01T00:00:00Z</time>
      </trkpt>
      <trkpt lat="44.62094" lon="2.3605">
        <ele>238</ele>
        <time>1970-01-01T00:00:00Z</time>
      </trkpt>
      <trkpt lat="44.62094" lon="2.36057">
        <ele>240</ele>
        <time>1970-01-01T00:00:00Z</time>
      </trkpt>
      <trkpt lat="44.62116" lon="2.36066">
        <ele>240</ele>
        <time>1970-01-01T00:00:00Z</time>
      </trkpt>
      <trkpt lat="44.62123" lon="2.36065">
        <ele>240</ele>
        <time>1970-01-01T00:00:00Z</time>
      </trkpt>
      <trkpt lat="44.62134" lon="2.36087">
        <ele>240</ele>
        <time>1970-01-01T00:00:00Z</time>
      </trkpt>
      <trkpt lat="44.62087" lon="2.3616">
        <ele>263</ele>
        <time>1970-01-01T00:00:00Z</time>
      </trkpt>
      <trkpt lat="44.62051" lon="2.36198">
        <ele>272</ele>
        <time>1970-01-01T00:00:00Z</time>
      </trkpt>
      <trkpt lat="44.62043" lon="2.36146">
        <ele>257</ele>
        <time>1970-01-01T00:00:00Z</time>
      </trkpt>
      <trkpt lat="44.62044" lon="2.3613">
        <ele>257</ele>
        <time>1970-01-01T00:00:00Z</time>
      </trkpt>
      <trkpt lat="44.62036" lon="2.36104">
        <ele>258</ele>
        <time>1970-01-01T00:00:00Z</time>
      </trkpt>
      <trkpt lat="44.62036" lon="2.36086">
        <ele>257</ele>
        <time>1970-01-01T00:00:00Z</time>
      </trkpt>
      <trkpt lat="44.62034" lon="2.36083">
        <ele>257</ele>
        <time>1970-01-01T00:00:00Z</time>
      </trkpt>
      <trkpt lat="44.62035" lon="2.36103">
        <ele>256</ele>
        <time>1970-01-01T00:00:00Z</time>
      </trkpt>
      <trkpt lat="44.62035" lon="2.3609">
        <ele>255</ele>
        <time>1970-01-01T00:00:00Z</time>
      </trkpt>
      <trkpt lat="44.62024" lon="2.3608">
        <ele>257</ele>
        <time>1970-01-01T00:00:00Z</time>
      </trkpt>
      <trkpt lat="44.62011" lon="2.36118">
        <ele>261</ele>
        <time>1970-01-01T00:00:00Z</time>
      </trkpt>
      <trkpt lat="44.61993" lon="2.36125">
        <ele>264</ele>
        <time>1970-01-01T00:00:00Z</time>
      </trkpt>
      <trkpt lat="44.61988" lon="2.3614">
        <ele>266</ele>
        <time>1970-01-01T00:00:00Z</time>
      </trkpt>
      <trkpt lat="44.61982" lon="2.36145">
        <ele>268</ele>
        <time>1970-01-01T00:00:00Z</time>
      </trkpt>
      <trkpt lat="44.61953" lon="2.36218">
        <ele>289</ele>
        <time>1970-01-01T00:00:00Z</time>
      </trkpt>
      <trkpt lat="44.61923" lon="2.3625">
        <ele>299</ele>
        <time>1970-01-01T00:00:00Z</time>
      </trkpt>
      <trkpt lat="44.61936" lon="2.36202">
        <ele>295</ele>
        <time>1970-01-01T00:00:00Z</time>
      </trkpt>
      <trkpt lat="44.6194" lon="2.36141">
        <ele>292</ele>
        <time>1970-01-01T00:00:00Z</time>
      </trkpt>
      <trkpt lat="44.61933" lon="2.36137">
        <ele>292</ele>
        <time>1970-01-01T00:00:00Z</time>
      </trkpt>
      <trkpt lat="44.61926" lon="2.36166">
        <ele>304</ele>
        <time>1970-01-01T00:00:00Z</time>
      </trkpt>
      <trkpt lat="44.61923" lon="2.36111">
        <ele>314</ele>
        <time>1970-01-01T00:00:00Z</time>
      </trkpt>
      <trkpt lat="44.61872" lon="2.36099">
        <ele>306</ele>
        <time>1970-01-01T00:00:00Z</time>
      </trkpt>
      <trkpt lat="44.61786" lon="2.361">
        <ele>305</ele>
        <time>1970-01-01T00:00:00Z</time>
      </trkpt>
      <trkpt lat="44.61734" lon="2.36072">
        <ele>304</ele>
        <time>1970-01-01T00:00:00Z</time>
      </trkpt>
      <trkpt lat="44.61746" lon="2.36061">
        <ele>302</ele>
        <time>1970-01-01T00:00:00Z</time>
      </trkpt>
      <trkpt lat="44.61744" lon="2.36048">
        <ele>300</ele>
        <time>1970-01-01T00:00:00Z</time>
      </trkpt>
      <trkpt lat="44.6173" lon="2.36039">
        <ele>299</ele>
        <time>1970-01-01T00:00:00Z</time>
      </trkpt>
      <trkpt lat="44.61717" lon="2.36038">
        <ele>298</ele>
        <time>1970-01-01T00:00:00Z</time>
      </trkpt>
      <trkpt lat="44.61682" lon="2.3605">
        <ele>297</ele>
        <time>1970-01-01T00:00:00Z</time>
      </trkpt>
      <trkpt lat="44.61638" lon="2.36048">
        <ele>296</ele>
        <time>1970-01-01T00:00:00Z</time>
      </trkpt>
      <trkpt lat="44.61597" lon="2.36034">
        <ele>294</ele>
        <time>1970-01-01T00:00:00Z</time>
      </trkpt>
      <trkpt lat="44.61572" lon="2.36029">
        <ele>292</ele>
        <time>1970-01-01T00:00:00Z</time>
      </trkpt>
      <trkpt lat="44.61554" lon="2.36016">
        <ele>289</ele>
        <time>1970-01-01T00:00:00Z</time>
      </trkpt>
      <trkpt lat="44.61511" lon="2.36003">
        <ele>278</ele>
        <time>1970-01-01T00:00:00Z</time>
      </trkpt>
      <trkpt lat="44.615" lon="2.35991">
        <ele>281</ele>
        <time>1970-01-01T00:00:00Z</time>
      </trkpt>
      <trkpt lat="44.61485" lon="2.35988">
        <ele>283</ele>
        <time>1970-01-01T00:00:00Z</time>
      </trkpt>
      <trkpt lat="44.61478" lon="2.35979">
        <ele>286</ele>
        <time>1970-01-01T00:00:00Z</time>
      </trkpt>
      <trkpt lat="44.61461" lon="2.35967">
        <ele>283</ele>
        <time>1970-01-01T00:00:00Z</time>
      </trkpt>
      <trkpt lat="44.61449" lon="2.35981">
        <ele>280</ele>
        <time>1970-01-01T00:00:00Z</time>
      </trkpt>
      <trkpt lat="44.61428" lon="2.35994">
        <ele>279</ele>
        <time>1970-01-01T00:00:00Z</time>
      </trkpt>
      <trkpt lat="44.61396" lon="2.3598">
        <ele>278</ele>
        <time>1970-01-01T00:00:00Z</time>
      </trkpt>
      <trkpt lat="44.61387" lon="2.3597">
        <ele>278</ele>
        <time>1970-01-01T00:00:00Z</time>
      </trkpt>
      <trkpt lat="44.61366" lon="2.35982">
        <ele>283</ele>
        <time>1970-01-01T00:00:00Z</time>
      </trkpt>
      <trkpt lat="44.61364" lon="2.35963">
        <ele>285</ele>
        <time>1970-01-01T00:00:00Z</time>
      </trkpt>
      <trkpt lat="44.61358" lon="2.3595">
        <ele>287</ele>
        <time>1970-01-01T00:00:00Z</time>
      </trkpt>
      <trkpt lat="44.61355" lon="2.35916">
        <ele>285</ele>
        <time>1970-01-01T00:00:00Z</time>
      </trkpt>
      <trkpt lat="44.61344" lon="2.35903">
        <ele>283</ele>
        <time>1970-01-01T00:00:00Z</time>
      </trkpt>
      <trkpt lat="44.6133" lon="2.35898">
        <ele>282</ele>
        <time>1970-01-01T00:00:00Z</time>
      </trkpt>
      <trkpt lat="44.61299" lon="2.35874">
        <ele>284</ele>
        <time>1970-01-01T00:00:00Z</time>
      </trkpt>
      <trkpt lat="44.61249" lon="2.35853">
        <ele>293</ele>
        <time>1970-01-01T00:00:00Z</time>
      </trkpt>
      <trkpt lat="44.61221" lon="2.3582">
        <ele>302</ele>
        <time>1970-01-01T00:00:00Z</time>
      </trkpt>
      <trkpt lat="44.61208" lon="2.35785">
        <ele>314</ele>
        <time>1970-01-01T00:00:00Z</time>
      </trkpt>
      <trkpt lat="44.61197" lon="2.35775">
        <ele>318</ele>
        <time>1970-01-01T00:00:00Z</time>
      </trkpt>
      <trkpt lat="44.61169" lon="2.35766">
        <ele>315</ele>
        <time>1970-01-01T00:00:00Z</time>
      </trkpt>
      <trkpt lat="44.61138" lon="2.35766">
        <ele>313</ele>
        <time>1970-01-01T00:00:00Z</time>
      </trkpt>
      <trkpt lat="44.61099" lon="2.35755">
        <ele>311</ele>
        <time>1970-01-01T00:00:00Z</time>
      </trkpt>
      <trkpt lat="44.61017" lon="2.35756">
        <ele>304</ele>
        <time>1970-01-01T00:00:00Z</time>
      </trkpt>
      <trkpt lat="44.61" lon="2.35761">
        <ele>301</ele>
        <time>1970-01-01T00:00:00Z</time>
      </trkpt>
      <trkpt lat="44.61003" lon="2.35769">
        <ele>292</ele>
        <time>1970-01-01T00:00:00Z</time>
      </trkpt>
      <trkpt lat="44.60989" lon="2.35782">
        <ele>294</ele>
        <time>1970-01-01T00:00:00Z</time>
      </trkpt>
      <trkpt lat="44.60966" lon="2.35796">
        <ele>305</ele>
        <time>1970-01-01T00:00:00Z</time>
      </trkpt>
      <trkpt lat="44.60992" lon="2.3578">
        <ele>322</ele>
        <time>1970-01-01T00:00:00Z</time>
      </trkpt>
      <trkpt lat="44.60993" lon="2.35775">
        <ele>328</ele>
        <time>1970-01-01T00:00:00Z</time>
      </trkpt>
      <trkpt lat="44.60994" lon="2.35779">
        <ele>332</ele>
        <time>1970-01-01T00:00:00Z</time>
      </trkpt>
      <trkpt lat="44.61004" lon="2.35779">
        <ele>336</ele>
        <time>1970-01-01T00:00:00Z</time>
      </trkpt>
      <trkpt lat="44.60998" lon="2.35771">
        <ele>334</ele>
        <time>1970-01-01T00:00:00Z</time>
      </trkpt>
      <trkpt lat="44.60999" lon="2.35777">
        <ele>332</ele>
        <time>1970-01-01T00:00:00Z</time>
      </trkpt>
      <trkpt lat="44.61005" lon="2.35777">
        <ele>344</ele>
        <time>1970-01-01T00:00:00Z</time>
      </trkpt>
      <trkpt lat="44.60999" lon="2.35778">
        <ele>359</ele>
        <time>1970-01-01T00:00:00Z</time>
      </trkpt>
      <trkpt lat="44.60997" lon="2.35803">
        <ele>355</ele>
        <time>1970-01-01T00:00:00Z</time>
      </trkpt>
      <trkpt lat="44.61004" lon="2.3581">
        <ele>351</ele>
        <time>1970-01-01T00:00:00Z</time>
      </trkpt>
      <trkpt lat="44.61033" lon="2.35816">
        <ele>368</ele>
        <time>1970-01-01T00:00:00Z</time>
      </trkpt>
      <trkpt lat="44.61024" lon="2.35828">
        <ele>367</ele>
        <time>1970-01-01T00:00:00Z</time>
      </trkpt>
      <trkpt lat="44.61021" lon="2.3584">
        <ele>365</ele>
        <time>1970-01-01T00:00:00Z</time>
      </trkpt>
      <trkpt lat="44.60989" lon="2.35878">
        <ele>370</ele>
        <time>1970-01-01T00:00:00Z</time>
      </trkpt>
      <trkpt lat="44.60959" lon="2.35925">
        <ele>394</ele>
        <time>1970-01-01T00:00:00Z</time>
      </trkpt>
      <trkpt lat="44.60957" lon="2.3592">
        <ele>399</ele>
        <time>1970-01-01T00:00:00Z</time>
      </trkpt>
      <trkpt lat="44.60958" lon="2.35925">
        <ele>397</ele>
        <time>1970-01-01T00:00:00Z</time>
      </trkpt>
      <trkpt lat="44.60935" lon="2.35961">
        <ele>397</ele>
        <time>1970-01-01T00:00:00Z</time>
      </trkpt>
      <trkpt lat="44.60928" lon="2.3597">
        <ele>396</ele>
        <time>1970-01-01T00:00:00Z</time>
      </trkpt>
      <trkpt lat="44.60911" lon="2.35959">
        <ele>384</ele>
        <time>1970-01-01T00:00:00Z</time>
      </trkpt>
      <trkpt lat="44.60906" lon="2.3597">
        <ele>386</ele>
        <time>1970-01-01T00:00:00Z</time>
      </trkpt>
      <trkpt lat="44.60911" lon="2.36019">
        <ele>396</ele>
        <time>1970-01-01T00:00:00Z</time>
      </trkpt>
      <trkpt lat="44.60921" lon="2.36032">
        <ele>410</ele>
        <time>1970-01-01T00:00:00Z</time>
      </trkpt>
      <trkpt lat="44.60936" lon="2.3603">
        <ele>423</ele>
        <time>1970-01-01T00:00:00Z</time>
      </trkpt>
      <trkpt lat="44.60934" lon="2.36039">
        <ele>426</ele>
        <time>1970-01-01T00:00:00Z</time>
      </trkpt>
      <trkpt lat="44.60907" lon="2.36062">
        <ele>439</ele>
        <time>1970-01-01T00:00:00Z</time>
      </trkpt>
      <trkpt lat="44.60896" lon="2.36065">
        <ele>442</ele>
        <time>1970-01-01T00:00:00Z</time>
      </trkpt>
      <trkpt lat="44.60889" lon="2.36066">
        <ele>441</ele>
        <time>1970-01-01T00:00:00Z</time>
      </trkpt>
      <trkpt lat="44.60885" lon="2.36061">
        <ele>438</ele>
        <time>1970-01-01T00:00:00Z</time>
      </trkpt>
      <trkpt lat="44.60866" lon="2.36056">
        <ele>431</ele>
        <time>1970-01-01T00:00:00Z</time>
      </trkpt>
      <trkpt lat="44.60864" lon="2.36059">
        <ele>430</ele>
        <time>1970-01-01T00:00:00Z</time>
      </trkpt>
      <trkpt lat="44.60878" lon="2.36125">
        <ele>430</ele>
        <time>1970-01-01T00:00:00Z</time>
      </trkpt>
      <trkpt lat="44.60872" lon="2.36129">
        <ele>433</ele>
        <time>1970-01-01T00:00:00Z</time>
      </trkpt>
      <trkpt lat="44.60857" lon="2.36131">
        <ele>433</ele>
        <time>1970-01-01T00:00:00Z</time>
      </trkpt>
      <trkpt lat="44.60857" lon="2.3615">
        <ele>429</ele>
        <time>1970-01-01T00:00:00Z</time>
      </trkpt>
      <trkpt lat="44.60878" lon="2.36191">
        <ele>429</ele>
        <time>1970-01-01T00:00:00Z</time>
      </trkpt>
      <trkpt lat="44.60914" lon="2.36237">
        <ele>428</ele>
        <time>1970-01-01T00:00:00Z</time>
      </trkpt>
      <trkpt lat="44.6091" lon="2.36242">
        <ele>427</ele>
        <time>1970-01-01T00:00:00Z</time>
      </trkpt>
      <trkpt lat="44.60914" lon="2.36239">
        <ele>426</ele>
        <time>1970-01-01T00:00:00Z</time>
      </trkpt>
      <trkpt lat="44.60948" lon="2.36248">
        <ele>432</ele>
        <time>1970-01-01T00:00:00Z</time>
      </trkpt>
      <trkpt lat="44.60991" lon="2.36234">
        <ele>442</ele>
        <time>1970-01-01T00:00:00Z</time>
      </trkpt>
      <trkpt lat="44.61013" lon="2.36233">
        <ele>444</ele>
        <time>1970-01-01T00:00:00Z</time>
      </trkpt>
      <trkpt lat="44.61057" lon="2.36289">
        <ele>450</ele>
        <time>1970-01-01T00:00:00Z</time>
      </trkpt>
      <trkpt lat="44.61083" lon="2.36317">
        <ele>453</ele>
        <time>1970-01-01T00:00:00Z</time>
      </trkpt>
      <trkpt lat="44.61081" lon="2.36343">
        <ele>456</ele>
        <time>1970-01-01T00:00:00Z</time>
      </trkpt>
      <trkpt lat="44.61069" lon="2.36395">
        <ele>471</ele>
        <time>1970-01-01T00:00:00Z</time>
      </trkpt>
      <trkpt lat="44.61078" lon="2.36426">
        <ele>474</ele>
        <time>1970-01-01T00:00:00Z</time>
      </trkpt>
      <trkpt lat="44.61099" lon="2.36452">
        <ele>476</ele>
        <time>1970-01-01T00:00:00Z</time>
      </trkpt>
      <trkpt lat="44.61123" lon="2.36493">
        <ele>477</ele>
        <time>1970-01-01T00:00:00Z</time>
      </trkpt>
      <trkpt lat="44.61125" lon="2.36557">
        <ele>487</ele>
        <time>1970-01-01T00:00:00Z</time>
      </trkpt>
      <trkpt lat="44.6112" lon="2.3656">
        <ele>489</ele>
        <time>1970-01-01T00:00:00Z</time>
      </trkpt>
      <trkpt lat="44.61095" lon="2.36497">
        <ele>489</ele>
        <time>1970-01-01T00:00:00Z</time>
      </trkpt>
      <trkpt lat="44.61034" lon="2.36457">
        <ele>492</ele>
        <time>1970-01-01T00:00:00Z</time>
      </trkpt>
      <trkpt lat="44.6101" lon="2.36449">
        <ele>494</ele>
        <time>1970-01-01T00:00:00Z</time>
      </trkpt>
      <trkpt lat="44.60984" lon="2.3647">
        <ele>495</ele>
        <time>1970-01-01T00:00:00Z</time>
      </trkpt>
      <trkpt lat="44.60957" lon="2.36516">
        <ele>499</ele>
        <time>1970-01-01T00:00:00Z</time>
      </trkpt>
      <trkpt lat="44.60883" lon="2.36602">
        <ele>505</ele>
        <time>1970-01-01T00:00:00Z</time>
      </trkpt>
      <trkpt lat="44.60854" lon="2.36629">
        <ele>507</ele>
        <time>1970-01-01T00:00:00Z</time>
      </trkpt>
      <trkpt lat="44.60816" lon="2.36642">
        <ele>507</ele>
        <time>1970-01-01T00:00:00Z</time>
      </trkpt>
      <trkpt lat="44.60762" lon="2.36648">
        <ele>506</ele>
        <time>1970-01-01T00:00:00Z</time>
      </trkpt>
      <trkpt lat="44.60706" lon="2.36682">
        <ele>507</ele>
        <time>1970-01-01T00:00:00Z</time>
      </trkpt>
      <trkpt lat="44.60671" lon="2.36729">
        <ele>508</ele>
        <time>1970-01-01T00:00:00Z</time>
      </trkpt>
      <trkpt lat="44.60632" lon="2.36795">
        <ele>509</ele>
        <time>1970-01-01T00:00:00Z</time>
      </trkpt>
      <trkpt lat="44.60581" lon="2.36817">
        <ele>511</ele>
        <time>1970-01-01T00:00:00Z</time>
      </trkpt>
      <trkpt lat="44.60487" lon="2.36835">
        <ele>516</ele>
        <time>1970-01-01T00:00:00Z</time>
      </trkpt>
      <trkpt lat="44.60376" lon="2.36837">
        <ele>523</ele>
        <time>1970-01-01T00:00:00Z</time>
      </trkpt>
      <trkpt lat="44.60325" lon="2.36865">
        <ele>523</ele>
        <time>1970-01-01T00:00:00Z</time>
      </trkpt>
      <trkpt lat="44.6029" lon="2.36944">
        <ele>522</ele>
        <time>1970-01-01T00:00:00Z</time>
      </trkpt>
      <trkpt lat="44.60287" lon="2.37125">
        <ele>530</ele>
        <time>1970-01-01T00:00:00Z</time>
      </trkpt>
      <trkpt lat="44.6026" lon="2.37199">
        <ele>535</ele>
        <time>1970-01-01T00:00:00Z</time>
      </trkpt>
      <trkpt lat="44.6022" lon="2.37292">
        <ele>536</ele>
        <time>1970-01-01T00:00:00Z</time>
      </trkpt>
      <trkpt lat="44.60198" lon="2.37329">
        <ele>536</ele>
        <time>1970-01-01T00:00:00Z</time>
      </trkpt>
      <trkpt lat="44.60186" lon="2.37341">
        <ele>536</ele>
        <time>1970-01-01T00:00:00Z</time>
      </trkpt>
      <trkpt lat="44.60115" lon="2.37366">
        <ele>536</ele>
        <time>1970-01-01T00:00:00Z</time>
      </trkpt>
      <trkpt lat="44.60035" lon="2.37363">
        <ele>538</ele>
        <time>1970-01-01T00:00:00Z</time>
      </trkpt>
      <trkpt lat="44.59995" lon="2.37345">
        <ele>538</ele>
        <time>1970-01-01T00:00:00Z</time>
      </trkpt>
      <trkpt lat="44.59979" lon="2.37344">
        <ele>538</ele>
        <time>1970-01-01T00:00:00Z</time>
      </trkpt>
      <trkpt lat="44.59811" lon="2.37422">
        <ele>535</ele>
        <time>1970-01-01T00:00:00Z</time>
      </trkpt>
      <trkpt lat="44.59739" lon="2.37462">
        <ele>538</ele>
        <time>1970-01-01T00:00:00Z</time>
      </trkpt>
      <trkpt lat="44.59716" lon="2.37464">
        <ele>538</ele>
        <time>1970-01-01T00:00:00Z</time>
      </trkpt>
      <trkpt lat="44.5969" lon="2.3746">
        <ele>540</ele>
        <time>1970-01-01T00:00:00Z</time>
      </trkpt>
      <trkpt lat="44.59544" lon="2.37537">
        <ele>546</ele>
        <time>1970-01-01T00:00:00Z</time>
      </trkpt>
      <trkpt lat="44.59418" lon="2.37654">
        <ele>548</ele>
        <time>1970-01-01T00:00:00Z</time>
      </trkpt>
      <trkpt lat="44.59307" lon="2.3777">
        <ele>544</ele>
        <time>1970-01-01T00:00:00Z</time>
      </trkpt>
      <trkpt lat="44.59274" lon="2.37851">
        <ele>546</ele>
        <time>1970-01-01T00:00:00Z</time>
      </trkpt>
      <trkpt lat="44.5925" lon="2.37879">
        <ele>548</ele>
        <time>1970-01-01T00:00:00Z</time>
      </trkpt>
      <trkpt lat="44.59211" lon="2.37916">
        <ele>547</ele>
        <time>1970-01-01T00:00:00Z</time>
      </trkpt>
      <trkpt lat="44.59243" lon="2.38032">
        <ele>548</ele>
        <time>1970-01-01T00:00:00Z</time>
      </trkpt>
      <trkpt lat="44.59259" lon="2.38139">
        <ele>538</ele>
        <time>1970-01-01T00:00:00Z</time>
      </trkpt>
      <trkpt lat="44.59291" lon="2.3827">
        <ele>534</ele>
        <time>1970-01-01T00:00:00Z</time>
      </trkpt>
      <trkpt lat="44.59315" lon="2.38398">
        <ele>533</ele>
        <time>1970-01-01T00:00:00Z</time>
      </trkpt>
      <trkpt lat="44.59335" lon="2.38445">
        <ele>526</ele>
        <time>1970-01-01T00:00:00Z</time>
      </trkpt>
      <trkpt lat="44.59397" lon="2.38527">
        <ele>513</ele>
        <time>1970-01-01T00:00:00Z</time>
      </trkpt>
      <trkpt lat="44.59402" lon="2.38572">
        <ele>510</ele>
        <time>1970-01-01T00:00:00Z</time>
      </trkpt>
      <trkpt lat="44.59384" lon="2.38646">
        <ele>504</ele>
        <time>1970-01-01T00:00:00Z</time>
      </trkpt>
      <trkpt lat="44.59346" lon="2.38741">
        <ele>486</ele>
        <time>1970-01-01T00:00:00Z</time>
      </trkpt>
      <trkpt lat="44.59346" lon="2.38762">
        <ele>481</ele>
        <time>1970-01-01T00:00:00Z</time>
      </trkpt>
      <trkpt lat="44.59329" lon="2.38762">
        <ele>477</ele>
        <time>1970-01-01T00:00:00Z</time>
      </trkpt>
      <trkpt lat="44.59321" lon="2.38777">
        <ele>472</ele>
        <time>1970-01-01T00:00:00Z</time>
      </trkpt>
      <trkpt lat="44.59384" lon="2.38833">
        <ele>457</ele>
        <time>1970-01-01T00:00:00Z</time>
      </trkpt>
      <trkpt lat="44.59423" lon="2.38853">
        <ele>449</ele>
        <time>1970-01-01T00:00:00Z</time>
      </trkpt>
      <trkpt lat="44.59427" lon="2.38863">
        <ele>449</ele>
        <time>1970-01-01T00:00:00Z</time>
      </trkpt>
      <trkpt lat="44.59473" lon="2.38898">
        <ele>444</ele>
        <time>1970-01-01T00:00:00Z</time>
      </trkpt>
      <trkpt lat="44.59494" lon="2.38907">
        <ele>440</ele>
        <time>1970-01-01T00:00:00Z</time>
      </trkpt>
      <trkpt lat="44.59509" lon="2.38909">
        <ele>438</ele>
        <time>1970-01-01T00:00:00Z</time>
      </trkpt>
      <trkpt lat="44.59534" lon="2.38895">
        <ele>435</ele>
        <time>1970-01-01T00:00:00Z</time>
      </trkpt>
      <trkpt lat="44.59559" lon="2.3882">
        <ele>416</ele>
        <time>1970-01-01T00:00:00Z</time>
      </trkpt>
      <trkpt lat="44.59566" lon="2.38768">
        <ele>398</ele>
        <time>1970-01-01T00:00:00Z</time>
      </trkpt>
      <trkpt lat="44.59601" lon="2.38688">
        <ele>382</ele>
        <time>1970-01-01T00:00:00Z</time>
      </trkpt>
      <trkpt lat="44.59607" lon="2.38696">
        <ele>379</ele>
        <time>1970-01-01T00:00:00Z</time>
      </trkpt>
      <trkpt lat="44.59605" lon="2.38707">
        <ele>378</ele>
        <time>1970-01-01T00:00:00Z</time>
      </trkpt>
      <trkpt lat="44.59622" lon="2.38699">
        <ele>378</ele>
        <time>1970-01-01T00:00:00Z</time>
      </trkpt>
      <trkpt lat="44.59617" lon="2.38709">
        <ele>378</ele>
        <time>1970-01-01T00:00:00Z</time>
      </trkpt>
      <trkpt lat="44.5962" lon="2.38723">
        <ele>376</ele>
        <time>1970-01-01T00:00:00Z</time>
      </trkpt>
      <trkpt lat="44.59625" lon="2.38733">
        <ele>376</ele>
        <time>1970-01-01T00:00:00Z</time>
      </trkpt>
      <trkpt lat="44.59634" lon="2.38731">
        <ele>376</ele>
        <time>1970-01-01T00:00:00Z</time>
      </trkpt>
      <trkpt lat="44.59637" lon="2.38748">
        <ele>374</ele>
        <time>1970-01-01T00:00:00Z</time>
      </trkpt>
      <trkpt lat="44.59636" lon="2.38762">
        <ele>377</ele>
        <time>1970-01-01T00:00:00Z</time>
      </trkpt>
      <trkpt lat="44.59655" lon="2.38801">
        <ele>381</ele>
        <time>1970-01-01T00:00:00Z</time>
      </trkpt>
      <trkpt lat="44.59664" lon="2.3883">
        <ele>380</ele>
        <time>1970-01-01T00:00:00Z</time>
      </trkpt>
      <trkpt lat="44.59661" lon="2.38836">
        <ele>379</ele>
        <time>1970-01-01T00:00:00Z</time>
      </trkpt>
      <trkpt lat="44.5967" lon="2.38861">
        <ele>381</ele>
        <time>1970-01-01T00:00:00Z</time>
      </trkpt>
      <trkpt lat="44.59672" lon="2.38888">
        <ele>388</ele>
        <time>1970-01-01T00:00:00Z</time>
      </trkpt>
      <trkpt lat="44.59682" lon="2.38915">
        <ele>388</ele>
        <time>1970-01-01T00:00:00Z</time>
      </trkpt>
      <trkpt lat="44.59683" lon="2.3896">
        <ele>354</ele>
        <time>1970-01-01T00:00:00Z</time>
      </trkpt>
      <trkpt lat="44.59688" lon="2.38968">
        <ele>348</ele>
        <time>1970-01-01T00:00:00Z</time>
      </trkpt>
      <trkpt lat="44.59692" lon="2.38983">
        <ele>324</ele>
        <time>1970-01-01T00:00:00Z</time>
      </trkpt>
      <trkpt lat="44.59711" lon="2.39028">
        <ele>320</ele>
        <time>1970-01-01T00:00:00Z</time>
      </trkpt>
      <trkpt lat="44.59719" lon="2.39032">
        <ele>312</ele>
        <time>1970-01-01T00:00:00Z</time>
      </trkpt>
      <trkpt lat="44.59716" lon="2.39025">
        <ele>302</ele>
        <time>1970-01-01T00:00:00Z</time>
      </trkpt>
      <trkpt lat="44.59722" lon="2.39025">
        <ele>295</ele>
        <time>1970-01-01T00:00:00Z</time>
      </trkpt>
      <trkpt lat="44.59728" lon="2.39037">
        <ele>290</ele>
        <time>1970-01-01T00:00:00Z</time>
      </trkpt>
      <trkpt lat="44.59736" lon="2.39041">
        <ele>285</ele>
        <time>1970-01-01T00:00:00Z</time>
      </trkpt>
      <trkpt lat="44.59743" lon="2.39056">
        <ele>287</ele>
        <time>1970-01-01T00:00:00Z</time>
      </trkpt>
      <trkpt lat="44.59782" lon="2.39094">
        <ele>289</ele>
        <time>1970-01-01T00:00:00Z</time>
      </trkpt>
      <trkpt lat="44.59772" lon="2.39098">
        <ele>268</ele>
        <time>1970-01-01T00:00:00Z</time>
      </trkpt>
      <trkpt lat="44.59795" lon="2.3912">
        <ele>269</ele>
        <time>1970-01-01T00:00:00Z</time>
      </trkpt>
      <trkpt lat="44.59807" lon="2.39138">
        <ele>265</ele>
        <time>1970-01-01T00:00:00Z</time>
      </trkpt>
      <trkpt lat="44.5982" lon="2.39205">
        <ele>256</ele>
        <time>1970-01-01T00:00:00Z</time>
      </trkpt>
      <trkpt lat="44.59812" lon="2.39291">
        <ele>243</ele>
        <time>1970-01-01T00:00:00Z</time>
      </trkpt>
      <trkpt lat="44.59819" lon="2.39304">
        <ele>242</ele>
        <time>1970-01-01T00:00:00Z</time>
      </trkpt>
      <trkpt lat="44.59877" lon="2.3931">
        <ele>245</ele>
        <time>1970-01-01T00:00:00Z</time>
      </trkpt>
      <trkpt lat="44.59905" lon="2.39319">
        <ele>247</ele>
        <time>1970-01-01T00:00:00Z</time>
      </trkpt>
      <trkpt lat="44.59936" lon="2.39323">
        <ele>253</ele>
        <time>1970-01-01T00:00:00Z</time>
      </trkpt>
      <trkpt lat="44.59966" lon="2.39316">
        <ele>257</ele>
        <time>1970-01-01T00:00:00Z</time>
      </trkpt>
      <trkpt lat="44.59988" lon="2.39303">
        <ele>259</ele>
        <time>1970-01-01T00:00:00Z</time>
      </trkpt>
      <trkpt lat="44.60008" lon="2.39284">
        <ele>263</ele>
        <time>1970-01-01T00:00:00Z</time>
      </trkpt>
      <trkpt lat="44.60025" lon="2.39243">
        <ele>265</ele>
        <time>1970-01-01T00:00:00Z</time>
      </trkpt>
      <trkpt lat="44.60032" lon="2.39252">
        <ele>267</ele>
        <time>1970-01-01T00:00:00Z</time>
      </trkpt>
      <trkpt lat="44.60018" lon="2.39307">
        <ele>271</ele>
        <time>1970-01-01T00:00:00Z</time>
      </trkpt>
      <trkpt lat="44.6" lon="2.39334">
        <ele>272</ele>
        <time>1970-01-01T00:00:00Z</time>
      </trkpt>
      <trkpt lat="44.59962" lon="2.39364">
        <ele>273</ele>
        <time>1970-01-01T00:00:00Z</time>
      </trkpt>
      <trkpt lat="44.59924" lon="2.39381">
        <ele>277</ele>
        <time>1970-01-01T00:00:00Z</time>
      </trkpt>
      <trkpt lat="44.59891" lon="2.39383">
        <ele>280</ele>
        <time>1970-01-01T00:00:00Z</time>
      </trkpt>
      <trkpt lat="44.59871" lon="2.39403">
        <ele>282</ele>
        <time>1970-01-01T00:00:00Z</time>
      </trkpt>
      <trkpt lat="44.59871" lon="2.39406">
        <ele>283</ele>
        <time>1970-01-01T00:00:00Z</time>
      </trkpt>
      <trkpt lat="44.59899" lon="2.39413">
        <ele>286</ele>
        <time>1970-01-01T00:00:00Z</time>
      </trkpt>
      <trkpt lat="44.59977" lon="2.39403">
        <ele>293</ele>
        <time>1970-01-01T00:00:00Z</time>
      </trkpt>
      <trkpt lat="44.60014" lon="2.39394">
        <ele>296</ele>
        <time>1970-01-01T00:00:00Z</time>
      </trkpt>
      <trkpt lat="44.60048" lon="2.39381">
        <ele>301</ele>
        <time>1970-01-01T00:00:00Z</time>
      </trkpt>
      <trkpt lat="44.60085" lon="2.39346">
        <ele>304</ele>
        <time>1970-01-01T00:00:00Z</time>
      </trkpt>
      <trkpt lat="44.60105" lon="2.39296">
        <ele>309</ele>
        <time>1970-01-01T00:00:00Z</time>
      </trkpt>
      <trkpt lat="44.60112" lon="2.39257">
        <ele>312</ele>
        <time>1970-01-01T00:00:00Z</time>
      </trkpt>
      <trkpt lat="44.60114" lon="2.39203">
        <ele>317</ele>
        <time>1970-01-01T00:00:00Z</time>
      </trkpt>
      <trkpt lat="44.6014" lon="2.39193">
        <ele>319</ele>
        <time>1970-01-01T00:00:00Z</time>
      </trkpt>
      <trkpt lat="44.60177" lon="2.39223">
        <ele>325</ele>
        <time>1970-01-01T00:00:00Z</time>
      </trkpt>
      <trkpt lat="44.60214" lon="2.39244">
        <ele>331</ele>
        <time>1970-01-01T00:00:00Z</time>
      </trkpt>
      <trkpt lat="44.60299" lon="2.39236">
        <ele>340</ele>
        <time>1970-01-01T00:00:00Z</time>
      </trkpt>
      <trkpt lat="44.60339" lon="2.39254">
        <ele>347</ele>
        <time>1970-01-01T00:00:00Z</time>
      </trkpt>
      <trkpt lat="44.60378" lon="2.3925">
        <ele>351</ele>
        <time>1970-01-01T00:00:00Z</time>
      </trkpt>
      <trkpt lat="44.60385" lon="2.39257">
        <ele>366</ele>
        <time>1970-01-01T00:00:00Z</time>
      </trkpt>
    </trkseg>
  </trk>
</gpx>